Regional Weather Roundup
Issued by NWS Upton, NY

Current Version | Previous Version | Graphics & Text | Print | Product List | Glossary Off
Versions: 1 2 3 4 5 6 7 8 9 10 11 12 13 14 15 16 17 18 19 20 21 22 23 24 25 26 27

000
ASUS41 KOKX 271304
RWROKX

REGIONAL WEATHER ROUNDUP
NATIONAL WEATHER SERVICE NEW YORK NY
900 AM EDT WED JUL 27 2016

NOTE: "FAIR" INDICATES FEW OR NO CLOUDS BELOW 12,000 FEET WITH NO
SIGNIFICANT WEATHER AND/OR OBSTRUCTIONS TO VISIBILITY.

NYZ071-072-176-178-NJZ106-104-271400-
NEW YORK CITY METRO AREA

CITY           SKY/WX    TMP DP  RH WIND       PRES   REMARKS
Central Park   SUNNY     80  60  50 VRB3      29.98F
LaGuardia APRT MOSUNNY   80  60  50 E8        29.95S
Kennedy INTL   MOSUNNY   82  60  47 NE7       29.96S
Newark/Liberty MOSUNNY   82  61  48 NE8       29.95F
Bronx Bot Gard   N/A     81  59  47 W1        29.97R
Wall St Helipt MOSUNNY   81  63  54 NE8       29.96S
Teterboro      SUNNY     80  60  50 NE3       29.95S
$$

NYZ177-179-078>081-271400-
LONG ISLAND NEW YORK

CITY           SKY/WX    TMP DP  RH WIND       PRES   REMARKS
Farmingdale    MOSUNNY   80  63  55 NE6       29.96R
MacArthur/ISP  MOSUNNY   81  64  56 CALM      29.95R
Shirley        PTSUNNY   82  66  58 NE3       29.96R
Riverhead      NOT AVBL
Westhampton    PTSUNNY   81  64  56 CALM      29.97R
Southhampton     N/A     81  66  61 N2        29.92R
Bridgehampton    N/A     77  68  73 SE2       29.94F
East Hampton   FAIR      79  65  64 CALM      29.94F
Montauk          N/A     76  64  66 NW3       29.96S
$$

NYZ052-065-067-271400-
HUDSON VALLEY

CITY           SKY/WX    TMP DP  RH WIND       PRES   REMARKS
White Plains   SUNNY     80  62  54 NW3       29.96S
Newburgh       SUNNY     73  66  78 VRB5      30.00S
Montgomery     SUNNY     75  66  73 CALM      29.98F
Poughkeepsie   SUNNY     76  64  66 CALM      29.97S
Albany         SUNNY     77  59  53 VRB3      29.97S
$$

NJZ001-105-106-008-010-013-015-019>022-104-271400-
NEW JERSEY

CITY           SKY/WX    TMP DP  RH WIND       PRES   REMARKS
Newark/Liberty MOSUNNY   82  61  48 NE8       29.95F
Teterboro      SUNNY     80  60  50 NE3       29.95S
Caldwell       SUNNY     78  64  61 CALM      29.97F
Morristown     PTSUNNY   77  64  65 CALM      29.97F
Somerville     SUNNY     78  65  63 CALM      29.95S
Linden         FAIR      81  62  51 CALM      29.97F
Sussex         SUNNY     75  65  70 CALM      29.99S
Abdover          N/A     74  64  71 CALM      30.00S
Trenton        CLOUDY    81  65  58 VRB3      29.97R
Millville      CLOUDY    83  69  62 SE6       29.95R
Atlantic City  MOSUNNY   81  67  62 E8        29.94S
Wrightstown    CLOUDY    79  66  64 NE7       29.94R
Toms River     CLOUDY    77  70  79 NE5       29.97R
Belmar         CLOUDY    81  64  56 NE7       29.98R
$$

PAZ047>061-062-071-271400-
EASTERN PENNSYLVANIA

CITY           SKY/WX    TMP DP  RH WIND       PRES   REMARKS
Philadelphia   MOSUNNY   82  63  52 NE8G20    29.97R
Allentown      SUNNY     77  64  64 CALM      29.99S
Scranton       SUNNY     72  62  71 CALM      30.02S
$$

CTZ002-004>006-009-010-012-RIZ004-006-007-MAZ004-011-015-271400-
SOUTHERN NEW ENGLAND
 IN CT

CITY           SKY/WX    TMP DP  RH WIND       PRES   REMARKS
Bradley INTL   MOSUNNY   80  60  50 NW3       29.95R
Hartford       SUNNY     80  65  59 CALM      29.95S
Danbury        SUNNY     76  63  64 CALM      29.98S
Wtrbury/Oxford MOSUNNY   75  61  60 CALM      30.00R
Bridgeport     SUNNY     80  63  55 CALM      29.95S
Meriden        SUNNY     81  61  50 CALM      29.95S
New Haven      MOSUNNY   79  63  57 N5        29.95S
Chester        FAIR      81  64  57 CALM      29.96S
Groton         MOSUNNY   77  66  68 S5        29.94R
Wilimantic     NOT AVBL

 IN RI

CITY           SKY/WX    TMP DP  RH WIND       PRES   REMARKS
Providence     MOSUNNY   82  61  48 NE9       29.94S
Block Island   SUNNY     78  62  57 CALM      29.95S
Westerly       SUNNY     82  62  50 CALM      29.95R
 IN MA

CITY           SKY/WX    TMP DP  RH WIND       PRES   REMARKS
Boston         MOSUNNY   81  61  50 NE5       29.93S
Worchester     SUNNY     77  59  53 NW8       29.98S
Westfield      SUNNY     79  60  52 SW3       29.96R
Provincetown   SUNNY     76  66  71 NW8       29.93R
Nantucket      SUNNY     78  65  63 N9        29.92R
$$

ANZ330-335-338-340-345-350-353-355-271400-
COASTAL MARINE OBSERVATIONS


STATION/POSITION TIME  SKY/WX   TEMP    WIND        PRES    VSBY  WAVE
                                AIR SEA DIR/SP/G                  HT/PER
                 (UTC)          (F)     (DEG/KT/KT) (MB)    (MI)  (FT/S)
NY HARB ENTRANCE 1150            74 73  360/  4/  4 1014.0          2/ 7
20S FIRE ISLAND  1150            75 75   30/  6/  8 1013.6          2/ 6
GREAT SOUTH BAY  1200            76 81   10/  6/  8   N/A
23 SSW MONTAUK P 1150            70 69  320/  4/  6 1014.4          2/ 6
15 E BARNEGAT LI 1222               77                N/A           2/ 6
HUDSON CANYON    1150            78 78              1013.6          2/ 7
KINGS POINT      1200            73 72              1014.4
EXECUTION ROCKS  1200            82     350/  2/  4   N/A
CENTRAL LI SOUND 1200            74 73  280/  4/  4   N/A           0
EASTERN LI SOUND 1200            79 67  280/  2/  4   N/A
ROBBINS REEF     1206            78     360/  2/  4 1013.8
$$


>>>>>>>>>>>>>>>>>>>>>>>>>>>> KEY <<<<<<<<<<<<<<<<<<<<<<<<<<<
>                                                          <
>     SKY/WX - Sky Condition/Present Weather               <
>     TMP    - Temperature in Fahrenheit                   <
>     DP     - Dew Point in Fahrenheit                     <
>     RH     - Relative Humidity in Percent                <
>     WIND   - Direction (from) and Speed in MPH           <
>     PRES   - Mean Sea Level Pressure (inches of Hg)      <
>     WCI    - Wind Chill Index                            <
>     VSB    - VISIBILITY IN MILES                         <
>     HX     - HEAT INDEX                                  <
>     TC     - TEMPERATURE IN CELSIUS                      <
>     VRB    - VARIABLE WIND DIRECTION                     <
>                                                          <
>>>>>>>>>>>>>>>>>>>>>>>>>>>> KEY <<<<<<<<<<<<<<<<<<<<<<<<<<<




USA.gov is the U.S. government's official web portal to all federal, state and local government web resources and services.